Home   Weather   Victorville   Past weeks

Flag for USA Past Weather in Victorville, California, USA — Yesterday and Last 2 Weeks

Now
41 °F

Clear.


Feels Like: 41 °F
Forecast: 29 / 54 °F
Wind: No wind

Location: George Air Force Base / Victorvi

Current Time: Jan 16, 2017 at 9:13:48 pm

Latest Report: Jan 16, 2017 at 8:15 pm


Visibility: 10 mi

Pressure: 30.11 "Hg (27.19 "Hg at 830m altitude)

Humidity: 53%

Dew Point: 25 °F

Location of VictorvilleLocation

Past Weather in Victorville — Graph

°F

Victorville Temperature Yesterday

Maximum temperature yesterday: 57 °F (at 12:55 pm)
Minimum temperature yesterday: 36 °F (at 5:15 am)
Average temperature yesterday: 45 °F

High & Low Weather Summary for the Past Weeks

 TemperatureHumidityPressure
High63 °F (Jan 4, 12:15 pm)100% (Jan 8, 4:55 am)30.32 "Hg (Jan 8, 4:55 am)
Low32 °F (Jan 6, 6:35 am)22% (Jan 16, 3:35 pm)29.85 "Hg (Jan 1, 7:35 pm)
Average45 °F74%30.05 "Hg
* Reported Jan 1 7:35 pm — Jan 16 7:55 pm, Victorville, Weather by CustomWeather, © 2017

Note: Actual official high and low records may vary slightly from our data, if they occured in-between our weather recording intervals... More about our weather records

Advertising

Victorville Weather History for the Previous 24 Hours

Scroll right to see more
 ConditionsComfort  
Time TempWeatherWind HumidityBarometerVisibility
7:55 pm
Mon, Jan 16
45 °FClear.No wind39%30.11 "Hg10 mi
7:35 pm45 °FClear.No wind39%30.11 "Hg10 mi
6:55 pm45 °FClear.No wind46%30.10 "Hg10 mi
6:15 pm48 °FClear.No wind29%30.10 "Hg10 mi
5:55 pm48 °FClear.No wind32%30.09 "Hg10 mi
5:15 pm50 °FClear.No wind30%30.09 "Hg10 mi
4:55 pm52 °FSunny.No wind28%30.09 "Hg10 mi
4:15 pm54 °FSunny.No wind24%30.07 "Hg10 mi
3:35 pm54 °FSunny.No wind22%30.07 "Hg10 mi
2:55 pm54 °FSunny.No wind24%30.07 "Hg10 mi
2:15 pm54 °FSunny.6 mph26%30.07 "Hg10 mi
1:55 pm54 °FSunny.12 mph24%30.08 "Hg10 mi
1:15 pm54 °FSunny.7 mph24%30.08 "Hg10 mi
12:35 pm54 °FSunny.10 mph24%30.10 "Hg10 mi
11:55 am52 °FSunny.9 mph30%30.12 "Hg7 mi
11:15 am52 °FSunny.10 mph35%30.13 "Hg10 mi
10:55 am52 °FSunny.10 mph38%30.14 "Hg10 mi
10:15 am48 °FSunny.No wind58%30.15 "Hg10 mi
9:35 am45 °FSunny.No wind76%30.14 "Hg10 mi
8:55 am41 °FSunny.No wind81%30.14 "Hg10 mi
8:35 am39 °FSunny.No wind87%30.13 "Hg10 mi
7:55 am36 °FSunny.No wind93%30.11 "Hg10 mi
7:15 am34 °FSunny.No wind87%30.10 "Hg10 mi
6:35 am34 °FFog.No wind87%30.09 "Hg5 mi
5:55 am34 °FFog.No wind93%30.08 "Hg5 mi
5:15 am36 °FClear.No wind93%30.06 "Hg10 mi
4:55 am37 °FClear.No wind87%30.06 "Hg10 mi
4:35 am37 °FClear.No wind87%30.05 "Hg10 mi
3:55 am37 °FClear.No wind93%30.05 "Hg7 mi
3:35 am39 °FClear.No wind87%30.04 "Hg7 mi
2:55 am37 °FClear.No wind93%30.05 "Hg7 mi
2:15 am37 °FClear.No wind93%30.06 "Hg7 mi
1:35 am39 °FClear.No wind87%30.05 "Hg10 mi
12:55 am39 °FPassing clouds.No wind87%30.05 "Hg10 mi
12:15 am39 °FClear.No wind87%30.05 "Hg7 mi
11:55 pm
Sun, Jan 15
39 °FClear.No wind87%30.05 "Hg7 mi
11:15 pm39 °FFog.No wind93%30.05 "Hg5 mi
10:35 pm41 °FClear.No wind87%30.06 "Hg7 mi
9:55 pm43 °FClear.No wind81%30.06 "Hg10 mi
9:15 pm41 °FClear.No wind87%30.05 "Hg10 mi
Weather by CustomWeather, © 2017

See weather overviewHow to use our weather pages